"generation_time";"museums_public";"collections_public";"objects_public";"images_public";"resouces_public";"transcriptions_public";"museum_records_public";"collection_records_public";"object_records_public";"literature";"exhibitions_public";"appointments_public";"articles_public";"series_public";"events";"links";"institution_faq_entries";"distinct_persinst";"distinct_places";"distinct_times";"distinct_tags";"avg_text_len_public";"avg_puqi_public"
"2019-11-29";"63";"85";"6001";"9753";"30";"0";"0";"0";"1";"366";"0";"0";"0";"86";"12569";"1061";"0";"2804";"1124";"1757";"5141";"469.0";"182.2"
"2019-11-30";"63";"85";"6001";"9753";"30";"0";"0";"0";"1";"366";"0";"0";"0";"86";"12569";"1061";"0";"2804";"1124";"1757";"5141";"469.0";"182.2"
"2019-12-03";"63";"85";"6001";"9753";"30";"0";"0";"0";"1";"366";"0";"0";"0";"86";"12614";"1061";"0";"2805";"1125";"1763";"5144";"469.0";"182.2"
"2019-12-04";"63";"85";"6001";"9753";"30";"0";"0";"0";"1";"366";"0";"0";"0";"86";"12644";"1061";"0";"2807";"1125";"1768";"5144";"469.0";"182.2"
"2019-12-05";"63";"85";"6001";"9753";"30";"0";"0";"0";"1";"366";"0";"0";"0";"86";"12783";"1063";"0";"2808";"1132";"1781";"5145";"469.0";"182.2"
"2019-12-06";"63";"85";"6001";"9753";"30";"0";"0";"0";"1";"366";"0";"0";"0";"86";"12808";"1071";"0";"2809";"1132";"1783";"5147";"469.0";"182.3"
"2019-12-07";"63";"85";"6001";"9753";"30";"0";"0";"0";"1";"366";"0";"0";"0";"86";"12808";"1071";"0";"2809";"1132";"1783";"5147";"469.0";"182.3"
"2019-12-08";"63";"85";"6001";"9753";"30";"0";"0";"0";"1";"366";"0";"0";"0";"86";"12809";"1071";"0";"2810";"1132";"1783";"5146";"469.0";"182.3"
"2019-12-09";"63";"85";"6001";"9753";"30";"0";"0";"0";"1";"366";"0";"0";"0";"86";"12809";"1071";"0";"2810";"1131";"1783";"5146";"469.0";"182.3"
"2019-12-10";"63";"85";"6001";"9753";"30";"0";"0";"0";"1";"366";"0";"0";"0";"86";"12815";"1071";"0";"2810";"1131";"1783";"5146";"469.0";"182.3"
"2019-12-11";"63";"85";"6001";"9753";"30";"0";"0";"0";"1";"366";"0";"0";"0";"91";"12834";"1077";"0";"2812";"1132";"1785";"5154";"469.0";"182.3"
"2019-12-12";"62";"85";"5992";"9744";"30";"0";"0";"0";"1";"366";"0";"0";"0";"91";"12825";"1077";"0";"2806";"1128";"1783";"5154";"469.4";"182.3"
"2019-12-13";"62";"85";"5992";"9744";"30";"0";"0";"0";"1";"366";"0";"0";"0";"91";"12825";"1077";"0";"2806";"1128";"1783";"5154";"469.4";"182.3"
"2019-12-14";"62";"85";"5992";"9744";"30";"0";"0";"0";"1";"366";"0";"0";"0";"91";"12825";"1077";"0";"2806";"1128";"1783";"5153";"469.4";"182.3"
"2019-12-15";"62";"85";"5992";"9744";"30";"0";"0";"0";"1";"366";"0";"0";"0";"91";"12806";"1077";"0";"2806";"1128";"1775";"5159";"469.4";"182.3"
"2019-12-16";"63";"85";"6480";"10709";"30";"0";"0";"0";"1";"366";"0";"0";"0";"91";"13175";"1077";"0";"2961";"1165";"1825";"5158";"444.6";"179.3"
"2019-12-17";"63";"85";"6480";"10709";"30";"0";"0";"0";"1";"366";"0";"0";"0";"91";"13175";"1077";"0";"2961";"1165";"1825";"5156";"444.6";"179.3"
"2019-12-18";"63";"85";"6480";"10709";"30";"0";"0";"0";"1";"366";"0";"0";"0";"91";"13175";"1077";"0";"2961";"1165";"1825";"5156";"444.6";"179.3"
"2019-12-19";"63";"85";"6480";"10709";"30";"0";"0";"0";"1";"366";"0";"0";"0";"91";"13175";"1077";"0";"2961";"1165";"1825";"5156";"444.7";"179.4"
"2019-12-20";"63";"85";"6502";"10737";"30";"0";"0";"0";"1";"366";"0";"0";"0";"91";"13279";"1077";"0";"2972";"1169";"1827";"5164";"444.7";"179.8"
"2019-12-21";"63";"85";"6502";"10737";"30";"0";"0";"0";"1";"366";"0";"0";"0";"91";"13321";"1077";"0";"2972";"1170";"1826";"5171";"445.0";"180.9"
"2019-12-22";"63";"85";"6502";"10737";"30";"0";"0";"0";"1";"366";"0";"0";"0";"91";"13321";"1077";"0";"2971";"1170";"1826";"5171";"445.0";"180.9"
"2019-12-23";"63";"85";"6502";"10737";"30";"0";"0";"0";"1";"366";"0";"0";"0";"91";"13308";"1077";"0";"2968";"1170";"1823";"5174";"445.0";"180.9"
"2019-12-24";"63";"85";"6502";"10737";"30";"0";"0";"0";"1";"366";"0";"0";"0";"91";"13308";"1077";"0";"2968";"1170";"1823";"5174";"445.0";"180.9"
"2019-12-25";"63";"85";"6502";"10737";"30";"0";"0";"0";"1";"366";"0";"0";"0";"91";"13308";"1077";"0";"2968";"1170";"1823";"5174";"445.0";"180.9"
"2019-12-26";"63";"85";"6502";"10737";"30";"0";"0";"0";"1";"366";"0";"0";"0";"91";"13308";"1077";"0";"2968";"1170";"1823";"5174";"445.0";"180.9"
"2019-12-27";"63";"85";"6502";"10737";"30";"0";"0";"0";"1";"366";"0";"0";"0";"91";"13308";"1077";"0";"2968";"1170";"1823";"5174";"445.0";"180.9"
"2019-12-28";"63";"85";"6502";"10737";"30";"0";"0";"0";"1";"366";"0";"0";"0";"91";"13308";"1077";"0";"2968";"1169";"1823";"5174";"445.0";"180.9"
"2019-12-29";"63";"85";"6502";"10737";"30";"0";"0";"0";"1";"366";"0";"0";"0";"91";"13308";"1077";"0";"2968";"1169";"1823";"5174";"445.0";"180.9"
"2019-12-30";"63";"85";"6502";"10737";"30";"0";"0";"0";"1";"366";"0";"0";"0";"91";"13308";"1077";"0";"2968";"1169";"1822";"5174";"445.0";"180.9"
"2019-12-31";"63";"85";"6502";"10737";"30";"0";"0";"0";"1";"366";"0";"0";"0";"91";"13308";"1077";"0";"2968";"1169";"1822";"5174";"445.0";"180.9"
"2020-01-01";"63";"85";"6502";"10737";"30";"0";"0";"0";"1";"366";"0";"0";"0";"91";"13308";"1077";"0";"2968";"1169";"1822";"5174";"445.0";"180.9"
"2020-01-02";"63";"85";"6502";"10737";"30";"0";"0";"0";"1";"366";"0";"0";"0";"91";"13308";"1077";"0";"2968";"1169";"1822";"5174";"445.0";"180.9"
"2020-01-03";"63";"85";"6502";"10737";"30";"0";"0";"0";"1";"366";"0";"0";"0";"91";"13308";"1077";"0";"2968";"1169";"1822";"5173";"445.0";"180.9"
"2020-01-04";"63";"85";"6502";"10737";"30";"0";"0";"0";"1";"366";"0";"0";"0";"91";"13308";"1077";"0";"2968";"1169";"1822";"5173";"445.0";"180.9"
"2020-01-05";"63";"85";"6502";"10737";"30";"0";"0";"0";"1";"366";"0";"0";"0";"91";"13308";"1077";"0";"2968";"1169";"1822";"5173";"445.0";"180.9"
"2020-01-06";"63";"85";"6502";"10737";"30";"0";"0";"0";"1";"366";"0";"0";"0";"91";"13308";"1077";"0";"2968";"1169";"1822";"5173";"445.0";"180.9"
"2020-01-07";"63";"85";"6502";"10737";"30";"0";"0";"0";"1";"366";"0";"0";"0";"91";"13261";"1077";"0";"2968";"1170";"1815";"5186";"445.0";"181.0"
"2020-01-08";"63";"85";"6502";"10737";"30";"0";"0";"0";"1";"366";"0";"0";"0";"91";"13248";"1077";"0";"2968";"1172";"1808";"5199";"445.0";"181.0"
"2020-01-09";"63";"85";"6502";"10737";"30";"0";"0";"0";"1";"366";"0";"0";"0";"92";"13258";"1077";"0";"2968";"1172";"1808";"5201";"445.0";"181.0"
"2020-01-10";"63";"85";"6505";"10743";"30";"0";"0";"0";"1";"366";"0";"0";"0";"92";"13264";"1077";"0";"2968";"1171";"1807";"5202";"444.8";"181.0"
"2020-01-11";"63";"85";"6508";"10748";"30";"0";"0";"0";"1";"366";"0";"0";"0";"92";"13266";"1077";"0";"2968";"1171";"1807";"5208";"444.7";"181.2"
"2020-01-12";"63";"85";"6508";"10748";"30";"0";"0";"0";"1";"366";"0";"0";"0";"92";"13266";"1077";"0";"2968";"1171";"1807";"5208";"444.7";"181.2"
"2020-01-13";"63";"85";"6508";"10748";"30";"0";"0";"0";"1";"366";"0";"0";"0";"92";"13266";"1077";"0";"2968";"1171";"1807";"5208";"444.7";"181.2"
"2020-01-14";"63";"85";"6508";"10748";"30";"0";"0";"0";"1";"366";"0";"0";"0";"92";"13269";"1077";"0";"2968";"1171";"1807";"5208";"444.7";"181.2"
"2020-01-15";"63";"85";"6509";"10751";"30";"0";"0";"0";"1";"366";"0";"0";"0";"92";"13269";"1077";"0";"2968";"1171";"1807";"5208";"444.6";"181.2"
"2020-01-16";"63";"85";"6525";"10776";"30";"0";"0";"0";"1";"366";"0";"0";"0";"92";"13294";"1077";"0";"2968";"1172";"1811";"5220";"444.6";"181.2"
"2020-01-17";"63";"85";"6531";"10784";"30";"0";"0";"0";"1";"366";"0";"0";"0";"92";"13308";"1077";"0";"2969";"1172";"1811";"5221";"444.5";"181.2"
"2020-01-18";"63";"85";"6536";"10802";"30";"0";"0";"0";"1";"366";"0";"0";"0";"93";"13315";"1077";"0";"2969";"1173";"1811";"5225";"444.4";"181.2"
"2020-01-19";"63";"85";"6536";"10802";"30";"0";"0";"0";"1";"366";"0";"0";"0";"93";"13315";"1077";"0";"2969";"1172";"1810";"5225";"444.4";"181.2"
"2020-01-20";"63";"85";"6536";"10802";"30";"0";"0";"0";"1";"366";"0";"0";"0";"93";"13315";"1077";"0";"2969";"1172";"1810";"5225";"444.4";"181.2"
"2020-01-21";"63";"86";"6537";"10806";"30";"0";"0";"0";"1";"366";"0";"0";"0";"93";"13319";"1077";"0";"2969";"1172";"1810";"5227";"444.4";"181.2"
"2020-01-22";"63";"86";"6537";"10806";"30";"0";"0";"0";"1";"366";"0";"0";"0";"93";"13321";"1077";"0";"2969";"1172";"1811";"5227";"444.4";"181.2"
"2020-01-23";"63";"86";"6539";"10820";"30";"0";"0";"0";"1";"366";"0";"0";"0";"93";"13323";"1077";"0";"2969";"1172";"1811";"5230";"444.4";"181.2"
"2020-01-24";"63";"86";"6539";"10820";"30";"0";"0";"0";"1";"366";"0";"0";"0";"93";"13333";"1077";"0";"2969";"1172";"1813";"5232";"444.4";"181.2"
"2020-01-25";"63";"86";"6539";"10820";"30";"0";"0";"0";"1";"366";"0";"0";"0";"93";"13339";"1077";"0";"2969";"1172";"1813";"5234";"444.4";"181.2"
"2020-01-26";"63";"86";"6539";"10820";"30";"0";"0";"0";"1";"366";"0";"0";"0";"93";"13339";"1077";"0";"2969";"1172";"1813";"5234";"444.4";"181.2"
"2020-01-27";"63";"86";"6539";"10820";"30";"0";"0";"0";"1";"366";"0";"0";"0";"93";"13339";"1077";"0";"2969";"1172";"1813";"5234";"444.4";"181.2"
"2020-01-28";"63";"86";"6539";"10820";"30";"0";"0";"0";"1";"366";"0";"0";"0";"93";"13353";"1077";"0";"2970";"1172";"1814";"5236";"444.4";"181.2"
"2020-01-29";"63";"87";"6547";"10830";"30";"0";"0";"0";"1";"366";"0";"0";"0";"93";"13354";"1077";"0";"2971";"1172";"1815";"5239";"444.4";"181.2"
"2020-01-30";"63";"87";"6553";"10837";"30";"0";"0";"0";"1";"366";"0";"0";"0";"93";"13362";"1077";"0";"2973";"1172";"1815";"5242";"444.4";"181.2"
"2020-01-31";"63";"87";"6554";"10838";"30";"0";"0";"0";"1";"368";"0";"0";"0";"93";"13398";"1077";"0";"2974";"1172";"1819";"5244";"444.4";"181.3"
"2020-02-01";"63";"87";"6554";"10838";"30";"0";"0";"0";"1";"368";"0";"0";"0";"93";"13428";"1077";"0";"2977";"1173";"1823";"5261";"444.4";"181.3"
"2020-02-02";"63";"87";"6554";"10838";"30";"0";"0";"0";"1";"368";"0";"0";"0";"93";"13428";"1077";"0";"2977";"1173";"1823";"5261";"444.4";"181.3"
"2020-02-03";"63";"87";"6554";"10838";"30";"0";"0";"0";"1";"368";"0";"0";"0";"93";"13428";"1077";"0";"2977";"1173";"1823";"5261";"444.4";"181.3"
"2020-02-04";"63";"87";"6554";"10838";"30";"0";"0";"0";"1";"368";"0";"0";"0";"93";"13430";"1077";"0";"2978";"1173";"1823";"5261";"444.4";"181.3"
"2020-02-05";"63";"87";"6554";"10838";"30";"0";"0";"0";"1";"368";"0";"0";"0";"93";"13434";"1077";"0";"2978";"1173";"1823";"5265";"444.4";"181.3"
"2020-02-06";"63";"87";"6563";"10847";"30";"0";"0";"0";"1";"368";"0";"0";"0";"93";"13440";"1077";"0";"2980";"1173";"1823";"5270";"444.7";"181.2"
"2020-02-07";"63";"87";"6564";"10850";"30";"0";"0";"0";"1";"368";"0";"0";"0";"93";"13452";"1077";"0";"2989";"1173";"1826";"5271";"444.7";"181.2"
"2020-02-08";"63";"87";"6564";"10850";"30";"0";"0";"0";"1";"368";"0";"0";"0";"93";"13464";"1077";"0";"2989";"1173";"1827";"5277";"444.7";"181.2"
"2020-02-09";"63";"87";"6564";"10850";"30";"0";"0";"0";"1";"373";"0";"0";"0";"93";"13464";"1079";"0";"2989";"1173";"1827";"5277";"444.7";"181.2"
"2020-02-13";"63";"87";"6564";"10850";"30";"0";"1";"1";"1";"392";"0";"0";"0";"93";"13563";"1079";"0";"2994";"1181";"1855";"5307";"444.7";"181.2"
"2020-02-15";"65";"91";"9726";"14023";"30";"0";"1";"3";"1";"392";"0";"0";"0";"94";"13782";"1079";"0";"3052";"1217";"1863";"5499";"438.9";"123.8"
"2020-02-16";"65";"91";"9726";"14023";"30";"0";"1";"3";"1";"392";"0";"0";"0";"94";"13782";"1079";"0";"3052";"1217";"1863";"5499";"438.9";"123.8"
"2020-02-17";"65";"91";"9726";"14023";"30";"0";"1";"3";"1";"392";"0";"0";"0";"94";"13782";"1079";"0";"3044";"1217";"1863";"5498";"439.1";"177.9"
"2020-02-18";"65";"91";"9728";"14041";"30";"0";"1";"3";"1";"392";"0";"0";"0";"94";"13783";"1084";"0";"3045";"1217";"1863";"5497";"439.6";"178.0"
"2020-02-19";"65";"90";"9768";"14144";"31";"0";"1";"3";"1";"392";"0";"0";"0";"93";"13826";"1095";"0";"3046";"1217";"1862";"5497";"440.9";"178.2"
"2020-02-20";"65";"90";"9768";"14144";"31";"0";"1";"3";"1";"392";"0";"0";"0";"93";"13830";"1095";"0";"3046";"1217";"1863";"5499";"440.9";"178.2"
"2020-02-21";"65";"90";"9782";"14348";"31";"0";"1";"3";"1";"395";"0";"0";"0";"93";"13854";"1099";"0";"3053";"1218";"1862";"5499";"441.0";"178.2"
"2020-02-22";"65";"90";"9776";"14342";"31";"0";"1";"3";"1";"397";"0";"0";"0";"93";"13874";"1099";"0";"3057";"1219";"1866";"5505";"441.0";"178.2"
"2020-02-23";"65";"90";"9776";"14342";"31";"0";"1";"3";"1";"397";"0";"0";"0";"93";"13874";"1099";"0";"3058";"1218";"1866";"5502";"441.0";"178.2"
"2020-02-24";"66";"92";"9778";"14352";"31";"0";"1";"3";"1";"397";"0";"0";"0";"93";"13899";"1099";"0";"3059";"1221";"1868";"5501";"441.4";"178.2"
"2020-02-25";"66";"92";"9783";"14362";"31";"0";"1";"3";"1";"398";"0";"0";"0";"93";"13901";"1099";"0";"3059";"1222";"1869";"5505";"441.5";"178.3"
"2020-02-26";"66";"92";"9999";"14588";"31";"0";"1";"3";"1";"399";"0";"0";"0";"93";"13910";"1107";"0";"3063";"1223";"1871";"5523";"446.5";"178.5"
"2020-02-27";"66";"95";"10240";"14929";"31";"0";"1";"3";"1";"399";"0";"0";"0";"93";"13918";"1107";"0";"3067";"1224";"1871";"5525";"451.0";"178.7"
"2020-02-28";"67";"96";"10248";"14941";"31";"0";"1";"3";"1";"399";"0";"0";"0";"94";"13918";"1117";"0";"3067";"1224";"1871";"5524";"451.1";"178.7"
"2020-03-01";"67";"96";"10248";"14941";"31";"0";"1";"3";"1";"399";"0";"0";"0";"94";"13917";"1117";"0";"3064";"1223";"1871";"5524";"451.1";"178.7"
"2020-03-03";"67";"96";"10248";"14941";"31";"0";"1";"3";"1";"399";"0";"0";"0";"94";"13921";"1117";"0";"3064";"1223";"1873";"5526";"451.1";"178.7"
"2020-03-04";"67";"96";"10250";"14943";"31";"0";"1";"3";"1";"400";"0";"0";"0";"94";"13933";"1133";"0";"3069";"1224";"1876";"5529";"451.1";"178.7"
"2020-03-05";"67";"96";"10250";"14943";"31";"0";"1";"3";"1";"400";"0";"0";"0";"94";"13934";"1133";"0";"3069";"1224";"1876";"5530";"451.1";"178.7"
"2020-03-06";"67";"96";"10252";"14947";"31";"0";"1";"3";"1";"400";"0";"0";"0";"94";"13934";"1133";"0";"3069";"1224";"1876";"5530";"451.1";"178.7"
"2020-03-07";"67";"96";"10271";"14968";"31";"0";"1";"3";"1";"400";"0";"0";"0";"94";"13976";"1133";"0";"3081";"1224";"1877";"5532";"451.0";"178.7"
"2020-03-08";"67";"97";"12331";"21138";"31";"0";"1";"3";"1";"400";"0";"0";"0";"94";"15605";"3217";"0";"4079";"1224";"2236";"5532";"518.9";"181.7"
"2020-03-09";"67";"97";"12329";"20984";"31";"0";"1";"3";"1";"400";"0";"0";"0";"95";"15627";"3216";"0";"4060";"1224";"2225";"5545";"518.9";"181.7"
"2020-03-10";"67";"97";"12329";"20984";"31";"0";"1";"3";"1";"400";"0";"0";"0";"95";"15627";"3216";"0";"4055";"1224";"2225";"5545";"518.9";"181.7"
"2020-03-11";"67";"97";"12328";"20983";"31";"0";"1";"3";"1";"400";"0";"0";"0";"95";"15631";"3216";"0";"4048";"1224";"2225";"5553";"519.0";"181.7"
"2020-03-12";"66";"96";"12261";"20916";"31";"0";"1";"3";"1";"400";"0";"0";"0";"95";"15675";"3216";"0";"4057";"1224";"2229";"5557";"520.0";"181.6"
"2020-03-13";"66";"96";"12258";"20922";"31";"0";"1";"3";"1";"400";"0";"0";"0";"95";"15702";"3216";"0";"4056";"1229";"2232";"5567";"520.1";"181.6"
"2020-03-14";"66";"96";"12258";"20922";"31";"0";"1";"3";"1";"400";"0";"0";"0";"95";"15702";"3216";"0";"4056";"1229";"2232";"5567";"520.1";"181.6"
"2020-03-15";"66";"96";"12258";"20922";"31";"0";"1";"3";"1";"400";"0";"0";"0";"95";"15702";"3216";"0";"4056";"1228";"2232";"5567";"520.1";"181.6"
"2020-03-16";"66";"97";"12268";"20937";"33";"0";"1";"3";"1";"400";"0";"0";"0";"95";"15753";"3216";"0";"4059";"1232";"2232";"5568";"520.1";"181.6"
"2020-03-18";"66";"97";"12268";"20937";"33";"0";"1";"3";"1";"400";"0";"0";"0";"95";"15755";"3216";"0";"4058";"1232";"2232";"5570";"520.1";"181.6"
"2020-03-20";"66";"98";"12270";"20938";"33";"0";"1";"3";"1";"400";"0";"0";"0";"95";"15758";"3216";"0";"4059";"1232";"2232";"5570";"520.0";"181.6"
"2020-03-23";"66";"98";"12270";"20938";"33";"0";"1";"3";"1";"400";"0";"0";"0";"95";"15758";"3216";"0";"4059";"1232";"2229";"5570";"520.0";"181.6"
"2020-03-24";"66";"98";"12270";"20938";"33";"0";"1";"3";"1";"400";"0";"0";"0";"95";"15758";"3216";"0";"4059";"1232";"2229";"5570";"520.0";"181.6"
"2020-03-25";"66";"98";"12270";"20938";"33";"0";"1";"3";"1";"400";"0";"0";"0";"95";"15757";"3216";"0";"4057";"1232";"2227";"5570";"520.0";"181.6"
"2020-03-26";"66";"98";"12270";"20938";"33";"0";"1";"3";"1";"400";"0";"0";"0";"95";"15757";"3216";"0";"4057";"1232";"2227";"5569";"520.0";"181.6"
"2020-03-28";"66";"98";"12270";"20938";"33";"0";"1";"3";"1";"401";"0";"0";"0";"95";"15757";"3216";"0";"4056";"1230";"2227";"5573";"520.0";"181.6"
"2020-03-30";"66";"98";"12279";"20955";"33";"0";"1";"3";"1";"403";"0";"0";"0";"95";"15774";"3216";"0";"4054";"1230";"2227";"5572";"519.8";"181.6"
"2020-03-31";"66";"98";"12279";"20955";"33";"0";"1";"3";"1";"403";"0";"0";"0";"95";"15774";"3216";"0";"4054";"1230";"2226";"5572";"519.8";"181.6"
"2020-04-01";"66";"98";"12333";"21065";"33";"0";"1";"3";"1";"372";"0";"0";"0";"95";"15779";"3216";"0";"4053";"1230";"2227";"5578";"518.7";"181.6"
"2020-04-02";"66";"98";"12334";"21071";"33";"0";"1";"3";"1";"372";"0";"0";"0";"95";"15785";"3216";"0";"4053";"1230";"2227";"5582";"518.7";"181.6"
"2020-04-03";"66";"99";"12413";"21274";"33";"0";"1";"3";"1";"372";"0";"0";"0";"95";"15822";"3216";"0";"4055";"1242";"2236";"5626";"519.0";"181.7"
"2020-04-04";"66";"99";"12413";"21274";"33";"0";"1";"3";"1";"372";"0";"0";"0";"95";"15822";"3216";"0";"4054";"1241";"2236";"5626";"519.0";"181.7"
"2020-04-05";"66";"99";"12413";"21274";"33";"0";"1";"3";"1";"372";"0";"0";"0";"95";"15822";"3216";"0";"4054";"1241";"2236";"5626";"519.0";"181.7"
"2020-04-06";"66";"99";"12413";"21274";"33";"0";"1";"3";"1";"372";"0";"0";"0";"95";"15822";"3216";"0";"4051";"1241";"2236";"5626";"519.0";"181.7"
"2020-04-07";"66";"99";"12413";"21274";"33";"0";"1";"3";"1";"372";"0";"0";"0";"95";"15822";"3216";"0";"4051";"1241";"2236";"5626";"519.0";"181.7"
"2020-04-08";"66";"99";"12414";"21275";"33";"0";"1";"3";"1";"372";"0";"0";"0";"95";"15820";"3216";"0";"4051";"1240";"2234";"5627";"519.0";"181.7"
"2020-04-09";"66";"99";"12429";"21331";"33";"0";"1";"3";"1";"372";"0";"0";"0";"95";"15833";"3216";"0";"4051";"1240";"2236";"5630";"518.9";"181.7"
"2020-04-10";"66";"99";"12509";"21434";"33";"0";"1";"3";"1";"372";"0";"0";"0";"95";"15832";"3216";"0";"4048";"1240";"2231";"5634";"518.5";"181.7"
"2020-04-11";"66";"99";"12509";"21434";"33";"0";"1";"3";"1";"372";"0";"0";"0";"95";"15829";"3216";"0";"4045";"1240";"2226";"5633";"518.5";"181.7"
"2020-04-12";"66";"99";"12509";"21434";"33";"0";"1";"3";"1";"372";"0";"0";"0";"95";"15829";"3216";"0";"4044";"1240";"2226";"5633";"518.5";"181.7"
"2020-04-13";"66";"99";"12509";"21434";"33";"0";"1";"3";"1";"372";"0";"0";"0";"95";"15829";"3216";"0";"4043";"1240";"2226";"5633";"518.5";"181.7"
"2020-04-14";"66";"99";"12509";"21434";"33";"0";"1";"3";"1";"373";"0";"0";"0";"95";"15831";"3216";"0";"4043";"1240";"2228";"5633";"518.5";"181.7"
"2020-04-15";"66";"98";"12508";"21430";"33";"0";"1";"3";"1";"373";"0";"0";"0";"96";"15814";"3216";"0";"4039";"1240";"2228";"5637";"518.5";"181.7"
"2020-04-16";"66";"98";"12508";"21430";"33";"0";"1";"3";"1";"373";"0";"0";"0";"96";"15814";"3216";"0";"4039";"1240";"2228";"5637";"518.5";"181.7"
"2020-04-17";"66";"98";"12504";"21426";"33";"0";"1";"3";"1";"373";"0";"0";"0";"96";"15822";"3216";"0";"4040";"1242";"2229";"5642";"518.5";"181.7"
"2020-04-18";"66";"98";"12519";"21471";"33";"0";"1";"3";"1";"373";"0";"0";"0";"97";"15848";"3228";"0";"4040";"1242";"2231";"5649";"518.2";"181.7"
"2020-04-19";"66";"98";"12519";"21471";"33";"0";"1";"3";"1";"373";"0";"0";"0";"97";"15841";"3228";"0";"4032";"1242";"2228";"5647";"518.2";"181.7"
"2020-04-20";"66";"98";"12519";"21471";"33";"0";"1";"3";"1";"373";"0";"0";"0";"97";"15841";"3228";"0";"4030";"1242";"2228";"5647";"518.2";"181.7"
"2020-04-21";"66";"98";"12520";"21477";"33";"0";"1";"3";"1";"373";"0";"0";"0";"97";"15841";"3228";"0";"4030";"1242";"2228";"5647";"518.3";"181.7"
"2020-04-22";"66";"98";"12542";"21533";"33";"0";"1";"3";"1";"373";"0";"0";"0";"95";"15911";"3238";"0";"4032";"1243";"2233";"5663";"517.7";"181.7"
"2020-04-23";"66";"98";"12561";"21595";"33";"0";"1";"3";"1";"373";"0";"0";"0";"95";"15961";"3244";"0";"4032";"1247";"2233";"5678";"517.3";"181.7"
"2020-04-25";"67";"101";"12641";"21676";"33";"0";"1";"3";"1";"373";"0";"0";"0";"95";"15966";"3244";"0";"4032";"1247";"2235";"5683";"515.9";"181.8"
"2020-04-26";"67";"100";"12640";"21674";"33";"0";"1";"3";"1";"373";"0";"0";"0";"95";"15977";"3244";"0";"4032";"1247";"2238";"5684";"515.9";"181.8"
"2020-04-27";"67";"100";"12641";"21675";"33";"0";"1";"3";"1";"373";"0";"0";"0";"95";"15981";"3244";"0";"4032";"1247";"2236";"5685";"515.9";"181.8"
"2020-04-28";"67";"100";"12641";"21675";"33";"0";"1";"3";"1";"373";"0";"0";"0";"95";"15989";"3244";"0";"4032";"1247";"2236";"5686";"515.9";"181.8"
"2020-04-29";"67";"101";"12646";"21675";"33";"0";"1";"3";"1";"374";"0";"0";"0";"95";"16017";"3244";"0";"4034";"1247";"2238";"5694";"515.9";"181.8"
"2020-04-30";"67";"101";"12646";"21675";"33";"0";"1";"3";"1";"374";"0";"0";"0";"95";"16017";"3244";"0";"4034";"1247";"2238";"5694";"515.9";"181.8"
"2020-05-01";"67";"105";"12683";"21717";"33";"0";"1";"3";"1";"374";"0";"0";"0";"95";"16088";"3244";"0";"4035";"1247";"2241";"5695";"515.6";"181.7"
"2020-05-02";"67";"106";"12706";"21772";"33";"0";"1";"3";"1";"374";"0";"0";"0";"95";"16088";"3244";"0";"4035";"1247";"2241";"5695";"515.6";"181.8"
"2020-05-03";"67";"106";"12706";"21772";"33";"0";"1";"3";"1";"374";"0";"0";"0";"95";"16088";"3244";"0";"4035";"1247";"2241";"5695";"515.6";"181.8"
"2020-05-04";"67";"106";"12706";"21772";"33";"0";"1";"3";"1";"374";"0";"0";"0";"95";"22805";"3244";"0";"4013";"1244";"2241";"5694";"515.6";"181.7"
"2020-05-05";"67";"107";"12716";"21798";"33";"0";"1";"3";"1";"374";"0";"0";"0";"95";"22990";"3244";"0";"4011";"1244";"2241";"5693";"515.5";"181.8"
"2020-05-06";"67";"108";"12729";"21903";"34";"0";"1";"3";"1";"374";"0";"0";"0";"95";"22960";"3244";"0";"4012";"1245";"2242";"5697";"515.2";"181.8"
"2020-05-07";"68";"102";"12663";"21785";"34";"0";"1";"3";"1";"374";"0";"0";"0";"95";"22967";"3244";"0";"4012";"1245";"2242";"5700";"515.7";"181.8"
"2020-05-08";"68";"103";"12664";"21787";"34";"0";"1";"3";"1";"382";"0";"0";"0";"95";"23067";"3244";"0";"4028";"1253";"2252";"5764";"515.7";"181.8"
"2020-05-09";"68";"104";"12671";"21795";"34";"0";"1";"3";"1";"383";"0";"0";"0";"95";"23084";"3244";"0";"4033";"1255";"2249";"5757";"515.8";"181.8"
"2020-05-10";"68";"105";"12692";"21820";"34";"0";"1";"3";"1";"383";"0";"0";"0";"95";"23123";"3244";"0";"4041";"1255";"2250";"5758";"515.7";"181.8"
"2020-05-11";"68";"105";"12699";"21828";"34";"0";"1";"3";"1";"383";"0";"0";"0";"95";"23135";"3244";"0";"4045";"1256";"2252";"5758";"515.8";"181.8"
"2020-05-12";"68";"107";"12939";"22161";"34";"0";"1";"3";"1";"384";"0";"0";"0";"96";"23172";"3244";"0";"4047";"1257";"2254";"5763";"513.3";"181.7"
"2020-05-13";"68";"107";"12966";"22189";"34";"0";"2";"3";"1";"384";"0";"0";"0";"99";"23189";"3246";"0";"4049";"1260";"2254";"5766";"513.2";"181.7"
"2020-05-14";"68";"107";"12978";"22213";"34";"0";"2";"3";"1";"384";"0";"0";"0";"99";"23223";"3246";"0";"4050";"1261";"2255";"5769";"513.1";"181.7"
"2020-05-15";"68";"107";"13039";"22282";"34";"0";"2";"3";"1";"384";"0";"0";"0";"99";"23230";"3247";"0";"4050";"1263";"2255";"5769";"512.5";"181.8"
"2020-05-16";"68";"107";"13055";"22312";"34";"0";"2";"3";"1";"384";"0";"0";"0";"99";"23256";"3247";"0";"4050";"1263";"2257";"5774";"512.2";"181.8"
"2020-05-17";"68";"107";"13061";"22325";"34";"0";"2";"3";"1";"384";"0";"0";"0";"99";"23262";"3247";"0";"4046";"1263";"2257";"5774";"512.0";"181.8"
"2020-05-18";"68";"107";"13062";"22328";"34";"0";"2";"3";"1";"384";"0";"0";"0";"99";"23262";"3247";"0";"4046";"1263";"2256";"5772";"512.0";"181.8"
"2020-05-19";"68";"108";"13073";"22348";"34";"0";"2";"3";"1";"384";"0";"0";"0";"99";"23281";"3247";"0";"4048";"1264";"2256";"5778";"512.2";"181.8"
"2020-05-20";"68";"107";"13077";"22354";"34";"0";"2";"3";"1";"384";"0";"0";"0";"99";"23287";"3247";"0";"4048";"1264";"2258";"5784";"512.2";"181.8"
"2020-05-21";"68";"107";"13083";"22361";"34";"0";"2";"3";"1";"384";"0";"0";"0";"99";"23296";"3247";"0";"4049";"1264";"2258";"5788";"512.2";"181.8"
"2020-05-22";"68";"107";"13083";"22363";"34";"0";"2";"3";"1";"384";"0";"0";"0";"99";"23296";"3247";"0";"4049";"1264";"2258";"5789";"512.2";"181.8"